GW7030 Weather Reports


Display with metric or nautical units.
time (UTC)temp
F
wind
direction
speed
MPH
gust
MPH
rain 1hr
in
rain 24hr
in
rain mn
in
humidity
%
barometer
mb
20260503235519 71 38 0.0 3.0 0.00 0.00 0.00 33 1015.1
20260503235015 71 305 0.0 3.0 0.00 0.00 0.00 31 1015.1
20260503234550 71 40 0.0 3.0 0.00 0.00 0.00 35 1015.1
20260503234013 72 40 1.0 3.0 0.00 0.00 0.00 34 1015.1
20260503233519 72 40 0.0 3.0 0.00 0.00 0.00 36 1015.3
20260503233052 72 40 1.0 3.0 0.00 0.00 0.00 35 1015.3
20260503232518 72 41 0.0 3.0 0.00 0.00 0.00 34 1015.4
20260503232018 72 41 0.0 3.0 0.00 0.00 0.00 34 1015.4
20260503231550 72 41 1.0 3.0 0.00 0.00 0.00 36 1015.4
20260503231018 73 63 0.0 3.0 0.00 0.00 0.00 37 1015.5
20260503230515 73 38 0.0 3.0 0.00 0.00 0.00 36 1015.6
20260503230058 73 56 0.0 3.0 0.00 0.00 0.00 37 1015.8
20260503225516 73 98 0.0 3.0 0.00 0.00 0.00 39 1015.6
20260503225015 74 98 1.0 3.0 0.00 0.00 0.00 39 1015.8
20260503224539 74 129 0.0 3.0 0.00 0.00 0.00 36 1015.9
20260503224017 75 129 1.0 3.0 0.00 0.00 0.00 37 1016.0
20260503223522 75 97 1.0 4.0 0.00 0.00 0.00 34 1015.9
20260503223051 75 71 1.0 4.0 0.00 0.00 0.00 36 1016.0
20260503222515 76 102 0.0 3.0 0.00 0.00 0.00 32 1016.0
20260503222016 77 139 2.0 3.0 0.00 0.00 0.00 37 1016.1
20260503221546 78 113 1.0 4.0 0.00 0.00 0.00 37 1015.9
20260503221017 78 117 2.0 4.0 0.00 0.00 0.00 36 1016.1
20260503220515 78 133 2.0 4.0 0.00 0.00 0.00 38 1016.3
20260503220050 78 125 2.0 4.0 0.00 0.00 0.00 36 1016.3
20260503215517 78 144 2.0 4.0 0.00 0.00 0.00 38 1016.1
20260503215018 78 151 2.0 4.0 0.00 0.00 0.00 36 1016.4
20260503214558 78 135 2.0 5.0 0.00 0.00 0.00 36 1016.5
20260503214017 79 136 3.0 5.0 0.00 0.00 0.00 35 1016.7
20260503213518 78 133 2.0 4.0 0.00 0.00 0.00 40 1016.6
20260503213058 77 107 1.0 4.0 0.00 0.00 0.00 40 1016.7
20260503212519 77 154 2.0 4.0 0.00 0.00 0.00 38 1016.6
20260503212019 76 38 0.0 3.0 0.00 0.00 0.00 39 1016.8
20260503211556 77 111 1.0 4.0 0.00 0.00 0.00 38 1016.7
20260503211016 77 116 1.0 4.0 0.00 0.00 0.00 41 1016.8
20260503210516 76 158 1.0 3.0 0.00 0.00 0.00 40 1017.0
20260503210106 76 121 1.0 4.0 0.00 0.00 0.00 42 1016.7
20260503205519 75 139 1.0 4.0 0.00 0.00 0.00 44 1016.8
20260503205019 75 90 0.0 4.0 0.00 0.00 0.00 41 1016.8
20260503204557 75 85 1.0 4.0 0.00 0.00 0.00 37 1016.9
20260503204020 76 128 1.0 4.0 0.00 0.00 0.00 39 1016.8
20260503203523 75 174 2.0 4.0 0.00 0.00 0.00 40 1017.0
20260503203049 74 120 1.0 4.0 0.00 0.00 0.00 43 1016.9
20260503202521 73 152 2.0 4.0 0.00 0.00 0.00 43 1017.1
20260503202017 73 142 0.0 4.0 0.00 0.00 0.00 41 1017.1
20260503201557 73 144 1.0 4.0 0.00 0.00 0.00 42 1017.2
20260503201014 73 110 2.0 4.0 0.00 0.00 0.00 42 1017.2
20260503200521 72 131 0.0 3.0 0.00 0.00 0.00 45 1017.3
20260503200101 72 134 1.0 3.0 0.00 0.00 0.00 44 1017.2
20260503195519 72 142 2.0 3.0 0.00 0.00 0.00 45 1017.3
20260503195017 72 149 1.0 3.0 0.00 0.00 0.00 42 1017.3
20260503194621 73 54 0.0 3.0 0.00 0.00 0.00 41 1017.3
20260503194018 73 154 1.0 4.0 0.00 0.00 0.00 43 1017.3
20260503193512 73 135 2.0 4.0 0.00 0.00 0.00 41 1017.3
20260503193053 73 137 2.0 4.0 0.00 0.00 0.00 45 1017.4
20260503192516 73 138 1.0 4.0 0.00 0.00 0.00 44 1017.3
20260503192016 73 149 2.0 4.0 0.00 0.00 0.00 43 1017.3
20260503191613 72 151 2.0 4.0 0.00 0.00 0.00 44 1017.3
20260503191014 72 141 2.0 4.0 0.00 0.00 0.00 45 1017.3
20260503190518 71 154 2.0 4.0 0.00 0.00 0.00 51 1017.3
20260503190059 70 148 2.0 3.0 0.00 0.00 0.00 50 1017.3
20260503185518 70 149 1.0 4.0 0.00 0.00 0.00 49 1017.3
20260503185020 69 149 2.0 4.0 0.00 0.00 0.00 47 1017.4
20260503184557 69 142 1.0 3.0 0.00 0.00 0.00 47 1017.4
20260503184017 69 140 1.0 3.0 0.00 0.00 0.00 48 1017.5
20260503183516 69 144 1.0 3.0 0.00 0.00 0.00 51 1017.4
20260503183106 68 140 1.0 3.0 0.00 0.00 0.00 49 1017.4
20260503182520 68 146 0.0 3.0 0.00 0.00 0.00 53 1017.3
20260503182016 68 142 0.0 3.0 0.00 0.00 0.00 53 1017.2
20260503181605 67 154 0.0 3.0 0.00 0.00 0.00 53 1017.2
20260503181017 67 152 2.0 3.0 0.00 0.00 0.00 52 1017.2
20260503180517 67 156 0.0 3.0 0.00 0.00 0.00 50 1017.3
20260503180054 66 148 1.0 3.0 0.00 0.00 0.00 53 1017.3
20260503175520 66 144 0.0 3.0 0.00 0.00 0.00 52 1017.4
20260503175031 65 143 1.0 3.0 0.00 0.00 0.00 52 1017.3
20260503174616 65 142 0.0 4.0 0.00 0.00 0.00 56 1017.4
20260503174019 65 144 1.0 4.0 0.00 0.00 0.00 53 1017.3
20260503173516 64 148 1.0 3.0 0.00 0.00 0.00 57 1017.2
20260503173054 64 148 1.0 3.0 0.00 0.00 0.00 53 1017.3
20260503172516 64 146 1.0 3.0 0.00 0.00 0.00 54 1017.3
20260503172017 64 150 1.0 3.0 0.00 0.00 0.00 54 1017.2
20260503171556 64 150 0.0 2.0 0.00 0.00 0.00 55 1017.1
20260503171017 64 161 0.0 2.0 0.00 0.00 0.00 53 1017.1
20260503170516 65 161 0.0 2.0 0.00 0.00 0.00 51 1017.1
20260503170110 65 161 0.0 2.0 0.00 0.00 0.00 53 1017.1
20260503150516 65 291 0.0 0.0 0.00 0.00 0.00 38 1017.3
20260503131015 65 291 0.0 1.0 0.00 0.00 0.00 37 1016.9
20260503130515 65 291 0.0 1.0 0.00 0.00 0.00 37 1016.9
20260503110526 64 289 0.0 1.0 0.00 0.00 0.00 34 1017.5
20260503110254 64 289 0.0 1.0 0.00 0.00 0.00 34 1017.6
20260503100112 64 289 0.0 1.0 0.00 0.00 0.00 35 1017.6
20260503090109 63 289 0.0 1.0 0.00 0.00 0.00 35 1017.9
20260503081601 63 288 0.0 1.0 0.00 0.00 0.00 36 1017.9
20260503081016 63 288 0.0 1.0 0.00 0.00 0.00 37 1017.8
20260503080514 63 288 0.0 1.0 0.00 0.00 0.00 38 1018.0
20260503072516 63 288 0.0 1.0 0.00 0.00 0.00 40 1017.9
20260503072027 64 288 0.0 1.0 0.00 0.00 0.00 40 1018.0
20260503071605 64 288 0.0 1.0 0.00 0.00 0.00 39 1018.0
20260503071022 64 288 0.0 2.0 0.00 0.00 0.00 37 1018.1
20260503070518 64 288 0.0 2.0 0.00 0.00 0.00 36 1018.0
20260503055015 65 298 1.0 2.0 0.00 0.00 0.00 36 1017.9
20260503054547 65 298 0.0 2.0 0.00 0.00 0.00 37 1017.9
20260503054015 65 298 0.0 2.0 0.00 0.00 0.00 36 1017.9
20260503053516 65 298 0.0 2.0 0.00 0.00 0.00 38 1018.0
20260503053050 65 298 0.0 2.0 0.00 0.00 0.00 37 1018.0
20260503052519 65 298 0.0 2.0 0.00 0.00 0.00 39 1017.9
20260503052017 65 298 0.0 2.0 0.00 0.00 0.00 38 1018.0
20260503051553 65 298 0.0 2.0 0.00 0.00 0.00 38 1017.9
20260503051016 65 298 0.0 2.0 0.00 0.00 0.00 39 1018.0
20260503050519 65 298 0.0 2.0 0.00 0.00 0.00 39 1018.1
20260503050050 65 298 0.0 2.0 0.00 0.00 0.00 39 1018.0
20260503045519 65 298 0.0 2.0 0.00 0.00 0.00 39 1018.0
20260503045020 65 298 0.0 2.0 0.00 0.00 0.00 39 1017.8
20260503044612 65 298 0.0 2.0 0.00 0.00 0.00 40 1017.8
20260503044032 65 277 0.0 2.0 0.00 0.00 0.00 39 1017.8
20260503043518 65 277 0.0 2.0 0.00 0.00 0.00 40 1017.8
20260503043053 65 277 0.0 2.0 0.00 0.00 0.00 40 1017.8
20260503042520 65 277 0.0 2.0 0.00 0.00 0.00 42 1017.8
20260503042022 65 275 0.0 2.0 0.00 0.00 0.00 40 1017.7
20260503041950 65 275 0.0 2.0 0.00 0.00 0.00 41 1017.7
20260503041017 65 275 0.0 2.0 0.00 0.00 0.00 40 1017.6
20260503040519 65 232 0.0 2.0 0.00 0.00 0.00 41 1017.5
20260503035516 65 232 0.0 2.0 0.00 0.00 0.00 41 1017.5
20260503035016 65 232 0.0 2.0 0.00 0.00 0.00 41 1017.4
20260503034606 65 232 0.0 2.0 0.00 0.00 0.00 41 1017.4
20260503034017 65 232 0.0 2.0 0.00 0.00 0.00 41 1017.2
20260503033521 65 232 1.0 2.0 0.00 0.00 0.00 41 1017.2
20260503033118 65 232 0.0 2.0 0.00 0.00 0.00 41 1017.1
20260503032522 65 232 0.0 2.0 0.00 0.00 0.00 41 1017.1
20260503032022 65 232 0.0 2.0 0.00 0.00 0.00 42 1017.2
20260503031555 65 232 0.0 2.0 0.00 0.00 0.00 43 1017.1
20260503031017 65 232 0.0 2.0 0.00 0.00 0.00 42 1017.1
20260503030518 65 232 0.0 2.0 0.00 0.00 0.00 44 1017.0
20260503030107 64 232 0.0 2.0 0.00 0.00 0.00 42 1017.0
20260503025517 64 232 0.0 2.0 0.00 0.00 0.00 43 1016.9
20260503025019 64 232 0.0 2.0 0.00 0.00 0.00 43 1016.8
20260503024603 64 232 0.0 1.0 0.00 0.00 0.00 43 1016.9
20260503024031 64 232 0.0 1.0 0.00 0.00 0.00 43 1016.8
20260503023516 64 232 0.0 1.0 0.00 0.00 0.00 44 1016.9
20260503023050 64 232 0.0 1.0 0.00 0.00 0.00 43 1016.9
20260503022519 64 232 0.0 1.0 0.00 0.00 0.00 46 1016.9
20260503022030 64 232 0.0 1.0 0.00 0.00 0.00 45 1017.0
20260503021606 65 232 0.0 0.0 0.00 0.00 0.00 51 1016.8
20260503021018 65 232 0.0 0.0 0.00 0.00 0.00 51 1016.8
20260503020516 65 232 0.0 1.0 0.00 0.00 0.00 49 1016.8
20260503020108 65 232 0.0 1.0 0.00 0.00 0.00 46 1016.7
20260503015519 66 232 0.0 0.0 0.00 0.00 0.00 48 1016.7
20260503015013 66 232 0.0 1.0 0.00 0.00 0.00 49 1016.8
20260503014550 66 232 0.0 1.0 0.00 0.00 0.00 50 1016.8
20260503014013 66 232 0.0 0.0 0.00 0.00 0.00 49 1016.9
20260503013517 67 232 0.0 0.0 0.00 0.00 0.00 49 1016.8
20260503013111 67 232 0.0 1.0 0.00 0.00 0.00 48 1016.8
20260503012524 67 232 0.0 1.0 0.00 0.00 0.00 49 1016.8
20260503012025 67 233 0.0 1.0 0.00 0.00 0.00 51 1016.8
20260503011609 67 233 0.0 1.0 0.00 0.00 0.00 49 1016.9
20260503011020 68 233 0.0 2.0 0.00 0.00 0.00 48 1017.0
20260503010518 68 233 0.0 2.0 0.00 0.00 0.00 49 1017.0
20260503010050 68 233 0.0 1.0 0.00 0.00 0.00 47 1017.0
20260503005516 68 233 0.0 1.0 0.00 0.00 0.00 48 1017.1
20260503005111 68 233 0.0 1.0 0.00 0.00 0.00 52 1017.2
20260503004550 68 129 0.0 2.0 0.00 0.00 0.00 48 1017.1
20260503004017 68 129 1.0 2.0 0.00 0.00 0.00 49 1017.1
20260503003519 68 115 0.0 2.0 0.00 0.00 0.00 49 1017.2
20260503003342 67 115 0.0 2.0 0.00 0.00 0.00 51 1017.2
20260503002623 67 109 0.0 2.0 0.00 0.00 0.00 50 1017.2
20260503002018 68 36 0.0 3.0 0.00 0.00 0.00 50 1017.2
20260503001547 68 36 0.0 3.0 0.00 0.00 0.00 50 1017.3
20260503001017 68 25 0.0 2.0 0.00 0.00 0.00 50 1017.3
20260503000514 68 25 0.0 2.0 0.00 0.00 0.00 50 1017.3
20260503000344 68 25 0.0 2.0 0.00 0.00 0.00 50 1017.4